Temp
26 27 28 30 31 31 32 35 36 36 34 31 31 32 33 34 36 36 34 34 34 34 33 33 32 30 27 25 25 25 25 24 25 27 28 26 24 23 23 23 23 23 23 23 23 24 24 24 26 29 31 31 29 28 27 26 25 25 26 27 27 26 25 26 27 27 27 27 28
25 26 28 33 34 32 31 31 34 35 34 32 32 31 30 31 33 32 31 30 33 34 33 32 30 28 25 25 25 25 24 23 24 25 25 24 23 23 23 23 23 23 24 23 23 24 24 24 26 29 31 30 28 27 28 27 25 25 25 26 26 26 26 27 26 26 26 27 27
24 26 27 29 30 29 28 29 29 29 30 30 31 30 28 29 30 30 30 31 30 29 28 29 29 27 25 24 24 24 24 24 23 23 23 23 23 23 23 23 23 23 23 23 22 23 23 23 27 30 31 29 27 26 27 27 27 26 26 26 27 28 28 29 27 26 27 27 27
24 24 25 25 25 26 27 29 27 26 27 30 29 29 29 30 30 30 29 29 28 27 27 28 28 26 25 24 24 24 25 26 25 24 23 23 23 23 23 23 23 22 22 22 22 22 22 23 27 29 28 25 24 25 26 26 25 26 26 26 27 27 28 29 28 28 28 27 26
24 24 24 25 25 25 26 26 26 25 25 27 28 28 28 29 29 28 28 27 27 28 28 27 25 24 25 25 24 24 24 26 29 26 23 23 22 23 23 24 24 23 22 22 22 22 22 23 27 28 27 25 26 25 24 23 23 24 25 27 28 28 28 28 28 28 28 27 25
25 24 24 24 24 24 24 24 24 24 24 26 26 25 25 26 27 26 26 26 25 24 25 26 26 26 26 24 24 23 23 23 25 24 22 23 22 22 22 23 23 23 23 23 22 22 22 22 27 29 29 28 26 23 22 22 23 23 24 26 27 27 27 26 27 27 27 26 25
26 26 25 24 24 24 24 24 23 23 24 25 24 23 23 23 23 23 23 23 23 23 24 28 29 29 27 24 23 23 22 22 22 22 22 22 22 23 23 23 23 24 26 26 23 22 21 22 26 30 32 32 30 26 22 21 22 23 24 25 26 26 25 23 25 26 26 24 24
26 26 25 25 24 23 23 24 24 24 24 25 23 23 23 22 22 22 21 21 22 22 24 27 27 26 25 23 23 23 22 21 21 21 22 22 22 22 22 22 22 23 25 25 25 23 22 22 25 28 31 32 32 28 23 21 22 22 23 23 24 25 24 23 23 24 25 25 25
26 26 26 25 24 24 23 23 24 24 24 24 23 22 22 22 22 21 21 22 23 24 24 25 24 23 23 22 22 22 22 22 22 22 22 23 23 23 23 23 23 23 24 25 27 26 25 24 25 27 31 33 33 30 26 23 22 22 22 23 23 23 23 23 23 23 24 25 25
26 26 26 26 25 25 24 23 24 24 23 23 22 22 23 26 25 23 22 23 25 25 24 24 22 22 21 21 22 22 22 22 22 22 23 24 25 24 24 24 24 23 23 24 27 29 30 27 25 24 26 31 31 31 29 28 25 24 23 24 24 23 22 22 22 23 24 25 25
27 27 27 27 26 26 26 25 25 25 24 24 23 22 23 27 26 25 24 25 24 23 22 23 22 22 21 22 22 22 22 22 23 23 23 24 25 25 25 25 25 24 24 24 26 28 30 31 28 26 27 30 30 31 32 31 29 27 25 25 24 23 22 23 23 23 24 25 26
28 27 27 27 26 26 26 26 26 26 26 25 24 23 22 23 23 24 25 25 24 24 23 22 22 22 22 23 22 23 23 22 22 23 23 23 24 24 25 25 26 25 25 25 26 27 29 31 31 30 29 29 27 29 31 31 30 29 29 29 26 25 24 23 23 23 24 25 27
27 27 27 26 26 26 26 27 27 27 26 26 25 24 24 23 23 24 24 25 24 24 23 22 22 22 22 22 22 22 23 23 22 23 23 23 24 25 26 27 27 26 26 27 28 29 29 30 30 30 30 30 26 27 29 31 30 30 30 31 28 26 25 24 23 23 24 25 28
26 26 26 26 25 26 26 27 27 27 27 26 26 25 24 23 23 24 25 25 24 23 22 22 24 25 24 23 22 22 22 23 22 23 23 24 24 26 28 30 30 29 28 29 30 30 30 30 30 30 30 30 28 28 29 29 30 30 30 30 27 25 24 24 23 24 25 26 29
25 25 25 25 25 25 26 27 28 28 27 27 26 25 24 23 23 25 26 25 25 24 23 22 24 25 26 25 24 23 22 22 23 23 23 24 25 27 29 31 31 31 30 30 30 30 31 31 30 30 30 30 29 29 29 29 30 30 30 30 28 26 24 23 23 25 27 28 30
24 24 24 24 24 25 26 27 28 28 28 27 26 25 24 23 23 25 26 25 25 24 24 24 24 24 25 26 25 24 23 23 23 24 24 25 25 27 29 30 30 30 30 30 30 30 30 31 31 30 30 30 30 30 30 30 30 29 29 29 30 27 25 23 24 26 28 29 30
24 24 24 24 24 25 26 27 28 28 28 27 26 24 24 23 22 24 26 27 26 25 25 24 24 23 23 25 26 25 25 24 25 26 26 26 27 28 29 30 30 30 30 30 30 30 30 30 31 31 31 31 31 31 31 31 30 30 30 29 29 27 26 25 27 27 28 29 31
25 25 25 25 25 26 27 27 27 28 27 27 25 24 23 23 22 23 25 28 27 26 26 25 24 23 23 24 25 26 27 26 27 27 28 28 29 29 30 30 30 29 28 28 29 30 30 30 31 31 31 31 31 31 31 31 30 29 28 27 27 27 27 27 28 28 29 30 31
25 25 26 26 26 27 27 28 28 28 27 26 26 25 23 23 23 23 24 25 26 27 27 26 25 25 25 25 26 27 29 29 29 29 29 30 30 31 31 31 31 30 29 29 29 30 30 31 31 31 31 31 31 31 31 31 31 29 28 26 27 28 29 28 28 28 29 30 31
27 27 27 27 27 28 28 28 28 28 27 26 26 25 25 23 23 23 23 23 24 26 26 27 26 26 26 26 27 28 30 31 30 30 31 31 31 31 31 31 30 30 30 30 30 30 31 31 31 31 31 31 31 31 31 31 30 30 29 28 28 28 29 29 28 28 29 30 31
28 28 28 28 28 28 28 28 27 27 26 26 26 26 25 24 24 24 24 24 24 24 25 27 27 26 26 27 27 29 31 32 31 31 31 31 31 31 31 31 30 30 30 30 30 30 30 30 31 31 30 30 30 30 30 30 30 30 30 29 28 29 29 29 28 29 30 30 30
29 29 29 28 28 28 27 27 26 26 26 25 26 26 25 25 25 25 24 24 24 24 25 26 26 26 27 27 28 29 31 32 31 31 31 30 30 30 30 30 30 30 30 30 30 30 30 30 30 30 30 30 30 30 30 30 30 30 29 29 29 29 29 29 29 30 30 30 31
29 29 28 27 27 28 28 27 26 26 26 26 26 26 25 25 25 25 24 24 25 25 25 25 26 26 27 27 29 30 31 31 31 31 30 30 30 30 30 30 29 29 29 29 30 30 30 30 30 30 30 30 30 30 30 30 30 30 29 29 29 29 29 29 30 30 30 30 31
29 28 27 27 26 26 27 26 26 25 26 26 26 26 26 26 25 25 24 24 25 25 25 26 26 26 27 28 29 30 30 30 30 30 30 30 29 29 29 29 29 29 29 29 30 30 30 30 30 30 30 30 30 30 30 30 30 30 29 29 29 29 29 29 29 30 30 30 31
28 28 28 27 27 26 25 25 26 26 26 27 26 26 25 25 25 25 24 24 25 25 25 25 25 26 27 28 29 29 30 29 29 29 29 29 29 29 29 28 28 29 29 30 32 33 34 33 32 31 30 29 29 30 30 30 30 29 29 29 29 29 29 29 29 29 29 29 30
28 28 27 27 27 26 26 26 26 26 26 26 26 25 25 25 25 25 24 24 25 25 25 25 25 26 27 28 28 29 29 29 29 28 28 28 28 28 28 28 28 29 30 31 33 35 36 36 36 34 32 30 29 29 28 27 27 27 27 27 28 28 28 28 29 28 28 29 30
28 27 27 27 26 26 26 26 26 26 26 26 26 26 26 25 25 25 24 25 24 24 24 24 24 27 29 29 29 29 29 29 29 28 28 28 28 28 28 28 28 29 30 32 33 35 36 37 38 37 36 32 30 29 28 27 26 26 26 27 27 28 28 28 28 28 28 28 29
27 27 27 26 26 26 26 25 25 26 26 26 26 26 26 25 24 24 24 24 24 24 25 25 26 28 30 30 30 29 29 29 29 28 28 28 28 28 28 28 28 29 31 33 34 35 36 37 38 38 38 36 33 31 29 28 27 27 27 27 27 28 28 28 28 28 28 27 26
27 27 26 25 26 26 26 25 26 26 26 26 26 26 25 25 24 24 24 24 25 26 27 28 29 30 30 30 29 29 29 29 28 28 28 28 28 28 28 28 28 29 31 34 35 35 36 37 38 38 39 39 36 33 31 30 29 29 28 28 28 28 28 28 28 28 28 29 29
26 26 26 25 26 26 26 26 26 26 26 26 25 25 24 24 25 25 25 25 26 27 28 29 30 30 30 29 29 29 29 29 29 28 28 28 28 28 28 29 28 29 31 34 35 36 36 37 38 38 39 39 38 36 33 32 31 30 30 29 29 29 29 30 30 30 31 32 31
26 26 25 26 26 26 26 27 26 26 25 25 24 24 24 24 25 25 26 26 27 28 29 29 30 30 30 30 30 29 29 29 28 28 28 28 28 28 28 29 28 29 31 34 35 36 36 37 38 38 39 39 38 37 35 34 33 32 31 31 30 30 31 31 31 32 32 32 32
25 25 25 26 26 27 27 26 25 25 24 24 24 24 24 25 25 25 25 26 27 28 29 30 30 30 30 30 30 29 29 29 28 28 28 28 28 28 28 29 29 29 31 33 34 35 36 37 37 38 38 39 38 37 36 35 34 33 33 32 31 31 32 32 32 32 33 33 33
25 25 25 26 27 27 26 25 25 24 23 23 24 24 25 25 25 25 25 25 26 27 28 29 29 29 30 30 30 29 29 29 29 29 29 29 28 28 28 28 28 30 32 33 34 35 36 37 37 38 38 39 38 37 36 36 36 35 34 33 33 33 33 33 33 33 33 33 33
25 25 25 26 27 26 26 25 24 23 23 23 24 24 25 24 24 24 25 25 26 26 27 28 29 30 30 30 30 29 29 29 29 29 28 28 28 28 28 28 27 29 32 33 34 35 36 36 37 37 38 39 37 37 36 36 36 36 35 35 34 34 33 33 33 33 33 33 33
25 25 25 26 26 26 25 24 23 23 23 23 24 24 24 24 25 25 25 27 27 26 26 28 29 30 30 30 30 30 29 29 29 28 28 28 28 28 28 27 27 29 32 34 34 35 36 36 37 37 38 38 37 36 36 35 35 35 36 35 35 34 34 33 33 33 33 33 33
25 25 25 26 25 25 24 23 23 22 23 24 24 24 24 25 25 25 26 27 27 26 26 28 29 29 29 30 30 30 30 29 29 28 28 28 28 27 27 27 27 29 31 33 34 35 36 36 37 37 37 37 36 35 35 35 35 35 35 35 35 35 35 34 34 34 33 33 33
25 25 26 25 25 24 24 23 23 23 23 24 25 25 25 25 25 25 25 26 25 25 26 28 28 29 29 29 29 29 29 29 29 28 28 29 28 27 27 27 26 27 30 32 34 35 35 36 37 37 37 36 35 35 34 34 34 34 34 34 35 35 35 35 34 34 33 33 33
25 26 26 26 25 25 24 23 23 24 24 25 25 25 25 25 24 24 25 27 25 25 26 28 28 29 29 28 29 29 28 28 28 29 28 28 28 28 27 26 25 26 28 31 33 34 35 36 36 37 37 36 35 34 34 34 34 34 34 34 34 34 34 34 34 34 33 32 33
26 26 26 26 26 25 25 24 24 25 25 25 25 25 25 25 25 25 26 27 25 25 26 27 27 28 28 28 29 29 28 27 28 29 28 28 28 28 28 27 26 26 28 31 32 34 34 35 36 37 37 36 35 34 34 34 33 33 33 34 34 33 33 33 33 33 33 32 35
26 26 27 27 27 26 26 25 26 26 26 26 26 25 25 25 26 26 27 26 25 25 25 26 26 26 27 29 29 29 29 28 28 28 28 28 28 29 29 28 27 27 28 30 32 33 34 35 36 37 37 36 35 35 34 34 33 33 33 33 34 33 33 32 32 31 31 32 34
25 26 27 27 27 27 27 26 27 27 27 27 26 26 27 27 26 26 25 24 24 25 25 26 25 25 26 28 29 29 29 29 28 27 27 28 28 29 30 29 28 27 27 29 32 33 34 35 36 37 37 36 35 35 34 34 33 32 32 32 33 33 33 32 31 30 29 30 31
MSLP
1022.52 1022.48 1022.46 1022.42 1022.42 1022.46 1022.46 1022.42 1022.42 1022.46 1022.52 1022.66 1022.74 1022.76 1022.80 1022.86 1022.86 1022.92 1022.98 1023.02 1023.04 1023.10 1023.14 1023.20 1023.24 1023.32 1023.42 1023.52 1023.60 1023.60 1023.64 1023.66 1023.70 1023.66 1023.66 1023.74 1023.80 1023.86 1023.88 1023.88 1023.92 1023.92 1023.88 1023.82 1023.80 1023.74 1023.66 1023.64 1023.58 1023.52 1023.48 1023.48 1023.52 1023.52 1023.52 1023.54 1023.58 1023.54 1023.54 1023.58 1023.58 1023.58 1023.60 1023.58 1023.58 1023.58 1023.58 1023.58 1023.54
1022.36 1022.36 1022.32 1022.26 1022.26 1022.36 1022.46 1022.46 1022.42 1022.42 1022.48 1022.54 1022.60 1022.66 1022.74 1022.80 1022.82 1022.88 1022.92 1022.98 1022.94 1022.94 1023.04 1023.10 1023.20 1023.32 1023.42 1023.48 1023.58 1023.60 1023.64 1023.64 1023.66 1023.66 1023.66 1023.70 1023.76 1023.82 1023.86 1023.86 1023.88 1023.88 1023.82 1023.82 1023.76 1023.70 1023.66 1023.64 1023.60 1023.54 1023.54 1023.54 1023.58 1023.58 1023.58 1023.58 1023.60 1023.60 1023.60 1023.64 1023.64 1023.64 1023.64 1023.60 1023.60 1023.60 1023.58 1023.58 1023.58
1022.24 1022.26 1022.26 1022.26 1022.30 1022.38 1022.46 1022.46 1022.48 1022.52 1022.52 1022.52 1022.52 1022.58 1022.66 1022.70 1022.74 1022.80 1022.82 1022.88 1022.88 1022.92 1023.02 1023.10 1023.20 1023.26 1023.38 1023.46 1023.54 1023.58 1023.60 1023.60 1023.58 1023.60 1023.64 1023.66 1023.70 1023.76 1023.80 1023.82 1023.82 1023.82 1023.80 1023.74 1023.74 1023.70 1023.66 1023.64 1023.60 1023.58 1023.58 1023.60 1023.64 1023.66 1023.66 1023.64 1023.64 1023.66 1023.66 1023.70 1023.66 1023.64 1023.64 1023.64 1023.60 1023.60 1023.60 1023.58 1023.60
1022.10 1022.16 1022.20 1022.24 1022.26 1022.32 1022.36 1022.38 1022.46 1022.52 1022.52 1022.52 1022.54 1022.60 1022.66 1022.66 1022.70 1022.74 1022.80 1022.82 1022.92 1022.98 1023.02 1023.04 1023.14 1023.20 1023.30 1023.38 1023.46 1023.52 1023.54 1023.52 1023.52 1023.52 1023.58 1023.60 1023.64 1023.66 1023.74 1023.70 1023.70 1023.74 1023.70 1023.70 1023.70 1023.66 1023.66 1023.64 1023.60 1023.58 1023.64 1023.70 1023.74 1023.74 1023.74 1023.70 1023.66 1023.70 1023.70 1023.70 1023.70 1023.70 1023.70 1023.66 1023.64 1023.64 1023.64 1023.60 1023.64
1021.98 1022.04 1022.10 1022.10 1022.14 1022.16 1022.24 1022.26 1022.36 1022.42 1022.48 1022.52 1022.60 1022.64 1022.64 1022.66 1022.74 1022.80 1022.86 1022.92 1022.94 1022.94 1022.98 1023.02 1023.14 1023.24 1023.30 1023.36 1023.38 1023.46 1023.52 1023.48 1023.42 1023.46 1023.52 1023.52 1023.58 1023.60 1023.64 1023.64 1023.64 1023.64 1023.64 1023.64 1023.64 1023.64 1023.64 1023.60 1023.58 1023.60 1023.66 1023.70 1023.70 1023.76 1023.80 1023.80 1023.76 1023.76 1023.74 1023.70 1023.74 1023.74 1023.74 1023.70 1023.70 1023.70 1023.66 1023.64 1023.64
1021.86 1021.92 1021.98 1022.02 1022.10 1022.14 1022.20 1022.24 1022.30 1022.38 1022.46 1022.52 1022.60 1022.64 1022.70 1022.70 1022.76 1022.82 1022.88 1022.92 1022.92 1022.98 1023.04 1023.08 1023.14 1023.16 1023.24 1023.32 1023.38 1023.42 1023.48 1023.48 1023.46 1023.46 1023.48 1023.48 1023.52 1023.54 1023.58 1023.58 1023.58 1023.58 1023.58 1023.58 1023.60 1023.60 1023.60 1023.60 1023.54 1023.54 1023.60 1023.64 1023.70 1023.80 1023.86 1023.86 1023.82 1023.80 1023.80 1023.76 1023.74 1023.74 1023.74 1023.74 1023.74 1023.74 1023.70 1023.66 1023.66
1021.70 1021.80 1021.88 1021.98 1022.04 1022.10 1022.16 1022.24 1022.30 1022.38 1022.48 1022.54 1022.60 1022.64 1022.66 1022.70 1022.76 1022.86 1022.92 1022.92 1022.98 1023.04 1023.04 1023.02 1023.08 1023.14 1023.24 1023.32 1023.36 1023.38 1023.38 1023.42 1023.42 1023.42 1023.42 1023.42 1023.46 1023.46 1023.46 1023.48 1023.52 1023.48 1023.46 1023.48 1023.54 1023.54 1023.58 1023.58 1023.52 1023.48 1023.52 1023.54 1023.60 1023.74 1023.82 1023.82 1023.80 1023.82 1023.82 1023.80 1023.76 1023.76 1023.76 1023.76 1023.74 1023.74 1023.74 1023.70 1023.70
1021.60 1021.70 1021.80 1021.86 1021.94 1022.04 1022.10 1022.16 1022.26 1022.38 1022.46 1022.48 1022.54 1022.60 1022.60 1022.66 1022.74 1022.80 1022.86 1022.92 1022.98 1023.04 1023.04 1023.02 1023.08 1023.16 1023.24 1023.30 1023.30 1023.32 1023.32 1023.36 1023.38 1023.38 1023.36 1023.36 1023.38 1023.38 1023.38 1023.42 1023.46 1023.42 1023.38 1023.42 1023.46 1023.46 1023.48 1023.48 1023.48 1023.48 1023.46 1023.48 1023.54 1023.60 1023.70 1023.80 1023.76 1023.80 1023.82 1023.82 1023.76 1023.74 1023.76 1023.76 1023.76 1023.74 1023.74 1023.70 1023.70
1021.58 1021.64 1021.66 1021.76 1021.82 1021.92 1022.02 1022.10 1022.20 1022.26 1022.36 1022.42 1022.46 1022.48 1022.54 1022.60 1022.66 1022.76 1022.82 1022.88 1022.88 1022.92 1023.02 1023.04 1023.14 1023.20 1023.26 1023.26 1023.26 1023.26 1023.26 1023.30 1023.30 1023.30 1023.30 1023.30 1023.30 1023.30 1023.32 1023.36 1023.36 1023.36 1023.36 1023.36 1023.30 1023.30 1023.36 1023.42 1023.42 1023.42 1023.38 1023.42 1023.46 1023.54 1023.60 1023.66 1023.70 1023.76 1023.80 1023.76 1023.70 1023.70 1023.70 1023.74 1023.74 1023.74 1023.70 1023.70 1023.66
1021.46 1021.48 1021.58 1021.64 1021.70 1021.76 1021.86 1021.98 1022.08 1022.14 1022.20 1022.30 1022.32 1022.38 1022.46 1022.48 1022.54 1022.66 1022.74 1022.74 1022.76 1022.86 1022.94 1023.02 1023.10 1023.16 1023.20 1023.24 1023.24 1023.24 1023.24 1023.24 1023.20 1023.20 1023.20 1023.20 1023.20 1023.20 1023.24 1023.26 1023.30 1023.30 1023.30 1023.30 1023.24 1023.16 1023.16 1023.26 1023.32 1023.36 1023.36 1023.32 1023.36 1023.42 1023.48 1023.52 1023.60 1023.66 1023.70 1023.66 1023.64 1023.64 1023.64 1023.66 1023.66 1023.66 1023.64 1023.64 1023.60
1021.26 1021.36 1021.42 1021.48 1021.54 1021.64 1021.74 1021.82 1021.92 1022.02 1022.08 1022.14 1022.20 1022.26 1022.36 1022.38 1022.46 1022.52 1022.58 1022.64 1022.74 1022.82 1022.88 1022.92 1023.02 1023.08 1023.10 1023.10 1023.14 1023.10 1023.14 1023.16 1023.14 1023.14 1023.14 1023.14 1023.10 1023.14 1023.16 1023.20 1023.20 1023.20 1023.24 1023.24 1023.20 1023.14 1023.10 1023.10 1023.20 1023.26 1023.26 1023.24 1023.26 1023.26 1023.30 1023.36 1023.42 1023.52 1023.54 1023.52 1023.54 1023.58 1023.60 1023.58 1023.58 1023.60 1023.60 1023.58 1023.52
1021.10 1021.20 1021.26 1021.32 1021.42 1021.52 1021.60 1021.70 1021.80 1021.88 1021.94 1022.02 1022.08 1022.14 1022.24 1022.26 1022.32 1022.36 1022.42 1022.54 1022.64 1022.70 1022.76 1022.86 1022.92 1022.94 1022.98 1022.98 1023.02 1023.02 1023.02 1023.04 1023.10 1023.10 1023.08 1023.08 1023.08 1023.08 1023.10 1023.10 1023.14 1023.16 1023.20 1023.20 1023.20 1023.14 1023.08 1023.04 1023.08 1023.10 1023.16 1023.20 1023.24 1023.24 1023.24 1023.24 1023.26 1023.30 1023.36 1023.32 1023.38 1023.46 1023.48 1023.48 1023.48 1023.52 1023.52 1023.52 1023.46
1021.02 1021.10 1021.16 1021.26 1021.36 1021.46 1021.54 1021.60 1021.66 1021.74 1021.82 1021.88 1021.92 1021.98 1022.04 1022.10 1022.16 1022.26 1022.32 1022.42 1022.48 1022.54 1022.60 1022.74 1022.80 1022.86 1022.88 1022.86 1022.88 1022.92 1022.94 1022.94 1023.02 1023.04 1023.02 1023.02 1023.02 1023.02 1023.02 1023.02 1023.08 1023.14 1023.16 1023.20 1023.16 1023.10 1023.04 1023.02 1023.02 1023.02 1023.04 1023.10 1023.16 1023.16 1023.10 1023.10 1023.14 1023.14 1023.16 1023.20 1023.24 1023.30 1023.32 1023.32 1023.32 1023.36 1023.38 1023.38 1023.32
1020.94 1021.02 1021.08 1021.16 1021.26 1021.36 1021.46 1021.52 1021.58 1021.60 1021.66 1021.74 1021.76 1021.82 1021.92 1021.98 1022.04 1022.14 1022.24 1022.30 1022.36 1022.46 1022.52 1022.60 1022.64 1022.66 1022.70 1022.76 1022.80 1022.82 1022.86 1022.88 1022.92 1022.94 1022.94 1022.94 1022.94 1022.94 1022.92 1022.92 1022.98 1023.04 1023.10 1023.10 1023.10 1023.08 1023.02 1022.98 1022.94 1022.92 1022.92 1022.94 1023.02 1023.04 1023.04 1023.02 1023.02 1023.02 1023.02 1023.02 1023.08 1023.14 1023.16 1023.20 1023.20 1023.24 1023.24 1023.20 1023.14
1020.86 1020.92 1020.98 1021.08 1021.16 1021.26 1021.32 1021.38 1021.42 1021.46 1021.52 1021.58 1021.60 1021.70 1021.80 1021.88 1021.94 1021.98 1022.08 1022.20 1022.26 1022.32 1022.42 1022.52 1022.52 1022.52 1022.52 1022.60 1022.66 1022.74 1022.76 1022.80 1022.86 1022.88 1022.88 1022.88 1022.88 1022.86 1022.82 1022.82 1022.86 1022.94 1022.98 1023.02 1023.04 1023.04 1022.98 1022.94 1022.88 1022.86 1022.82 1022.82 1022.86 1022.88 1022.92 1022.92 1022.88 1022.88 1022.88 1022.88 1022.92 1022.94 1023.02 1023.04 1023.08 1023.08 1023.04 1023.02 1022.92
1020.74 1020.80 1020.88 1020.98 1021.04 1021.14 1021.20 1021.24 1021.24 1021.26 1021.32 1021.36 1021.42 1021.52 1021.64 1021.74 1021.80 1021.86 1021.94 1022.04 1022.14 1022.24 1022.30 1022.36 1022.38 1022.42 1022.46 1022.46 1022.52 1022.58 1022.64 1022.70 1022.74 1022.76 1022.80 1022.80 1022.80 1022.80 1022.76 1022.74 1022.76 1022.82 1022.88 1022.92 1022.94 1022.94 1022.92 1022.86 1022.86 1022.80 1022.76 1022.76 1022.76 1022.76 1022.80 1022.80 1022.76 1022.76 1022.80 1022.76 1022.74 1022.80 1022.86 1022.92 1022.94 1022.92 1022.86 1022.82 1022.80
1020.60 1020.66 1020.76 1020.86 1020.92 1020.94 1020.98 1021.02 1021.04 1021.08 1021.10 1021.14 1021.24 1021.36 1021.46 1021.54 1021.66 1021.74 1021.76 1021.82 1021.94 1022.08 1022.14 1022.20 1022.26 1022.32 1022.36 1022.36 1022.36 1022.38 1022.48 1022.52 1022.54 1022.58 1022.58 1022.60 1022.64 1022.64 1022.64 1022.64 1022.64 1022.70 1022.76 1022.80 1022.82 1022.82 1022.80 1022.80 1022.80 1022.76 1022.70 1022.66 1022.66 1022.64 1022.64 1022.64 1022.66 1022.66 1022.70 1022.66 1022.66 1022.74 1022.76 1022.76 1022.80 1022.80 1022.76 1022.70 1022.60
1020.46 1020.52 1020.60 1020.66 1020.74 1020.74 1020.76 1020.82 1020.86 1020.88 1020.92 1020.98 1021.08 1021.16 1021.26 1021.36 1021.48 1021.54 1021.58 1021.60 1021.70 1021.82 1021.94 1022.02 1022.10 1022.20 1022.24 1022.20 1022.16 1022.16 1022.20 1022.24 1022.26 1022.30 1022.32 1022.36 1022.38 1022.42 1022.42 1022.46 1022.48 1022.54 1022.60 1022.66 1022.70 1022.66 1022.66 1022.70 1022.66 1022.66 1022.66 1022.60 1022.58 1022.58 1022.54 1022.54 1022.54 1022.60 1022.60 1022.60 1022.64 1022.64 1022.64 1022.64 1022.64 1022.64 1022.60 1022.58 1022.46
1020.30 1020.36 1020.42 1020.48 1020.52 1020.52 1020.54 1020.58 1020.64 1020.66 1020.74 1020.80 1020.88 1020.98 1021.08 1021.16 1021.26 1021.36 1021.42 1021.46 1021.48 1021.58 1021.70 1021.82 1021.92 1021.98 1022.02 1021.98 1021.98 1021.92 1021.92 1021.94 1021.98 1022.02 1022.04 1022.08 1022.10 1022.14 1022.16 1022.20 1022.26 1022.36 1022.42 1022.46 1022.48 1022.48 1022.48 1022.52 1022.48 1022.52 1022.54 1022.52 1022.52 1022.48 1022.48 1022.48 1022.48 1022.48 1022.52 1022.54 1022.54 1022.54 1022.52 1022.52 1022.52 1022.52 1022.48 1022.42 1022.36
1020.04 1020.14 1020.16 1020.20 1020.24 1020.30 1020.32 1020.36 1020.42 1020.48 1020.54 1020.64 1020.74 1020.82 1020.92 1020.98 1021.08 1021.16 1021.26 1021.30 1021.30 1021.38 1021.48 1021.58 1021.70 1021.76 1021.76 1021.76 1021.76 1021.74 1021.66 1021.66 1021.74 1021.76 1021.80 1021.82 1021.88 1021.92 1021.94 1021.98 1022.04 1022.10 1022.20 1022.24 1022.26 1022.26 1022.26 1022.30 1022.30 1022.32 1022.38 1022.38 1022.38 1022.38 1022.38 1022.36 1022.36 1022.36 1022.36 1022.42 1022.42 1022.42 1022.38 1022.38 1022.42 1022.42 1022.38 1022.36 1022.26
1019.80 1019.82 1019.86 1019.88 1019.94 1020.04 1020.10 1020.14 1020.24 1020.32 1020.42 1020.52 1020.58 1020.64 1020.70 1020.76 1020.88 1020.94 1020.98 1021.04 1021.14 1021.26 1021.32 1021.36 1021.42 1021.48 1021.52 1021.54 1021.54 1021.52 1021.48 1021.48 1021.54 1021.60 1021.64 1021.70 1021.74 1021.76 1021.80 1021.86 1021.92 1021.94 1021.98 1022.02 1022.04 1022.04 1022.04 1022.08 1022.10 1022.16 1022.20 1022.24 1022.24 1022.24 1022.24 1022.24 1022.20 1022.20 1022.24 1022.26 1022.30 1022.30 1022.30 1022.30 1022.32 1022.30 1022.26 1022.20 1022.14
1019.52 1019.54 1019.58 1019.66 1019.74 1019.82 1019.92 1019.98 1020.08 1020.16 1020.26 1020.32 1020.38 1020.42 1020.52 1020.58 1020.66 1020.70 1020.76 1020.86 1020.98 1021.08 1021.14 1021.14 1021.16 1021.24 1021.26 1021.30 1021.30 1021.30 1021.26 1021.32 1021.38 1021.46 1021.52 1021.58 1021.64 1021.66 1021.70 1021.76 1021.80 1021.82 1021.80 1021.80 1021.82 1021.82 1021.86 1021.86 1021.88 1021.94 1021.98 1021.98 1022.02 1022.04 1022.04 1022.04 1022.08 1022.08 1022.08 1022.10 1022.14 1022.16 1022.20 1022.16 1022.16 1022.16 1022.10 1022.04 1021.98
1019.26 1019.32 1019.38 1019.52 1019.60 1019.64 1019.70 1019.82 1019.92 1020.02 1020.04 1020.10 1020.20 1020.26 1020.32 1020.38 1020.46 1020.52 1020.60 1020.74 1020.82 1020.88 1020.92 1020.94 1020.98 1021.02 1021.04 1021.04 1021.08 1021.08 1021.10 1021.14 1021.24 1021.30 1021.36 1021.46 1021.52 1021.54 1021.60 1021.66 1021.70 1021.70 1021.66 1021.64 1021.64 1021.66 1021.66 1021.66 1021.66 1021.70 1021.74 1021.76 1021.76 1021.80 1021.82 1021.82 1021.86 1021.88 1021.88 1021.92 1021.98 1022.02 1022.02 1022.02 1021.98 1021.98 1021.94 1021.88 1021.82
1019.02 1019.14 1019.24 1019.32 1019.42 1019.52 1019.58 1019.64 1019.76 1019.86 1019.88 1019.92 1019.98 1020.08 1020.14 1020.20 1020.26 1020.38 1020.52 1020.58 1020.64 1020.70 1020.74 1020.76 1020.80 1020.86 1020.86 1020.86 1020.86 1020.88 1020.94 1021.04 1021.10 1021.14 1021.16 1021.26 1021.32 1021.38 1021.46 1021.52 1021.54 1021.52 1021.48 1021.48 1021.48 1021.48 1021.48 1021.48 1021.48 1021.52 1021.54 1021.58 1021.58 1021.54 1021.58 1021.60 1021.60 1021.66 1021.70 1021.74 1021.76 1021.76 1021.80 1021.82 1021.82 1021.82 1021.80 1021.74 1021.66
1018.88 1019.02 1019.10 1019.16 1019.30 1019.38 1019.46 1019.54 1019.60 1019.64 1019.70 1019.70 1019.76 1019.88 1019.98 1020.04 1020.14 1020.26 1020.36 1020.42 1020.48 1020.52 1020.58 1020.60 1020.66 1020.70 1020.70 1020.74 1020.74 1020.76 1020.82 1020.88 1020.94 1021.02 1021.02 1021.08 1021.14 1021.20 1021.24 1021.30 1021.30 1021.26 1021.26 1021.24 1021.14 1021.10 1021.10 1021.16 1021.20 1021.26 1021.32 1021.38 1021.42 1021.42 1021.42 1021.42 1021.42 1021.46 1021.52 1021.52 1021.54 1021.58 1021.58 1021.60 1021.60 1021.60 1021.60 1021.60 1021.54
1018.76 1018.88 1018.98 1019.04 1019.14 1019.24 1019.32 1019.38 1019.46 1019.48 1019.52 1019.58 1019.66 1019.74 1019.82 1019.88 1019.98 1020.10 1020.20 1020.26 1020.30 1020.36 1020.42 1020.48 1020.52 1020.54 1020.58 1020.60 1020.64 1020.64 1020.70 1020.76 1020.82 1020.86 1020.86 1020.92 1020.94 1020.98 1021.02 1021.02 1021.04 1021.02 1020.98 1020.92 1020.82 1020.76 1020.74 1020.74 1020.76 1020.86 1020.98 1021.10 1021.20 1021.26 1021.26 1021.30 1021.32 1021.36 1021.36 1021.38 1021.36 1021.38 1021.38 1021.38 1021.38 1021.42 1021.46 1021.42 1021.38
1018.66 1018.74 1018.80 1018.88 1018.98 1019.08 1019.14 1019.20 1019.26 1019.32 1019.38 1019.48 1019.54 1019.58 1019.64 1019.74 1019.82 1019.92 1020.02 1020.08 1020.14 1020.20 1020.30 1020.36 1020.38 1020.42 1020.42 1020.46 1020.46 1020.48 1020.52 1020.58 1020.60 1020.66 1020.70 1020.76 1020.80 1020.80 1020.80 1020.76 1020.76 1020.76 1020.70 1020.64 1020.54 1020.48 1020.46 1020.38 1020.36 1020.38 1020.48 1020.70 1020.82 1020.92 1020.98 1021.04 1021.14 1021.20 1021.20 1021.24 1021.24 1021.20 1021.20 1021.20 1021.16 1021.16 1021.20 1021.24 1021.24
1018.52 1018.58 1018.66 1018.76 1018.88 1018.94 1018.98 1019.04 1019.16 1019.20 1019.24 1019.30 1019.32 1019.38 1019.48 1019.58 1019.70 1019.80 1019.86 1019.92 1019.98 1020.08 1020.14 1020.20 1020.20 1020.24 1020.26 1020.26 1020.26 1020.26 1020.32 1020.42 1020.46 1020.52 1020.54 1020.58 1020.58 1020.60 1020.58 1020.58 1020.52 1020.48 1020.42 1020.38 1020.32 1020.30 1020.24 1020.16 1020.10 1020.08 1020.08 1020.20 1020.38 1020.52 1020.60 1020.74 1020.82 1020.92 1020.98 1021.02 1021.04 1021.02 1020.98 1020.98 1020.98 1020.98 1021.02 1021.04 1021.04
1018.32 1018.42 1018.54 1018.64 1018.70 1018.74 1018.82 1018.92 1018.98 1019.02 1019.04 1019.08 1019.16 1019.30 1019.38 1019.48 1019.58 1019.64 1019.70 1019.76 1019.86 1019.92 1019.92 1019.92 1019.98 1020.04 1020.04 1020.02 1020.02 1020.08 1020.14 1020.20 1020.26 1020.32 1020.38 1020.36 1020.36 1020.36 1020.32 1020.32 1020.30 1020.24 1020.20 1020.14 1020.10 1020.04 1019.98 1019.92 1019.88 1019.86 1019.82 1019.80 1019.94 1020.10 1020.24 1020.32 1020.48 1020.58 1020.64 1020.70 1020.74 1020.76 1020.76 1020.74 1020.74 1020.76 1020.76 1020.74 1020.76
1018.14 1018.26 1018.36 1018.46 1018.52 1018.58 1018.64 1018.70 1018.74 1018.76 1018.82 1018.94 1019.10 1019.20 1019.30 1019.38 1019.46 1019.52 1019.58 1019.60 1019.64 1019.64 1019.64 1019.70 1019.76 1019.80 1019.80 1019.80 1019.82 1019.92 1019.98 1020.02 1020.08 1020.14 1020.16 1020.16 1020.14 1020.10 1020.10 1020.08 1020.08 1020.04 1020.02 1019.94 1019.92 1019.86 1019.80 1019.74 1019.70 1019.66 1019.64 1019.60 1019.64 1019.74 1019.86 1019.98 1020.10 1020.20 1020.26 1020.32 1020.36 1020.42 1020.46 1020.46 1020.46 1020.46 1020.46 1020.46 1020.48
1017.98 1018.10 1018.20 1018.26 1018.36 1018.38 1018.42 1018.46 1018.52 1018.60 1018.70 1018.86 1018.98 1019.10 1019.20 1019.26 1019.30 1019.30 1019.32 1019.38 1019.42 1019.42 1019.48 1019.54 1019.60 1019.58 1019.58 1019.58 1019.64 1019.70 1019.74 1019.80 1019.86 1019.92 1019.94 1019.94 1019.86 1019.86 1019.82 1019.82 1019.86 1019.82 1019.80 1019.76 1019.70 1019.64 1019.58 1019.54 1019.48 1019.46 1019.46 1019.46 1019.46 1019.48 1019.54 1019.64 1019.70 1019.80 1019.86 1019.88 1019.98 1020.04 1020.10 1020.14 1020.14 1020.14 1020.16 1020.16 1020.16
1017.86 1017.94 1018.04 1018.10 1018.14 1018.14 1018.16 1018.26 1018.36 1018.48 1018.60 1018.76 1018.86 1018.94 1019.02 1019.08 1019.08 1019.10 1019.14 1019.20 1019.24 1019.30 1019.32 1019.38 1019.38 1019.38 1019.38 1019.42 1019.46 1019.52 1019.54 1019.60 1019.64 1019.66 1019.66 1019.66 1019.66 1019.64 1019.64 1019.64 1019.60 1019.60 1019.64 1019.60 1019.54 1019.48 1019.42 1019.38 1019.32 1019.30 1019.30 1019.26 1019.30 1019.30 1019.32 1019.32 1019.38 1019.46 1019.48 1019.52 1019.60 1019.66 1019.70 1019.76 1019.80 1019.80 1019.82 1019.86 1019.88
1017.70 1017.80 1017.86 1017.92 1017.94 1017.94 1017.98 1018.10 1018.20 1018.32 1018.48 1018.58 1018.66 1018.74 1018.82 1018.86 1018.88 1018.94 1019.02 1019.04 1019.10 1019.14 1019.16 1019.16 1019.20 1019.20 1019.20 1019.24 1019.30 1019.30 1019.32 1019.36 1019.38 1019.42 1019.46 1019.46 1019.46 1019.46 1019.42 1019.38 1019.36 1019.38 1019.42 1019.38 1019.36 1019.30 1019.24 1019.16 1019.16 1019.10 1019.08 1019.04 1019.10 1019.10 1019.10 1019.10 1019.14 1019.14 1019.16 1019.24 1019.26 1019.32 1019.36 1019.42 1019.46 1019.48 1019.52 1019.54 1019.58
1017.58 1017.66 1017.74 1017.74 1017.76 1017.80 1017.86 1017.94 1018.04 1018.16 1018.32 1018.42 1018.52 1018.58 1018.64 1018.70 1018.74 1018.76 1018.80 1018.86 1018.88 1018.94 1018.94 1018.98 1019.02 1019.02 1019.02 1019.02 1019.08 1019.10 1019.10 1019.14 1019.16 1019.20 1019.24 1019.24 1019.26 1019.26 1019.20 1019.16 1019.16 1019.16 1019.20 1019.16 1019.14 1019.08 1019.02 1018.98 1018.94 1018.92 1018.92 1018.88 1018.88 1018.92 1018.92 1018.88 1018.88 1018.88 1018.88 1018.92 1018.98 1019.02 1019.08 1019.08 1019.14 1019.16 1019.20 1019.26 1019.30
1017.46 1017.54 1017.60 1017.60 1017.60 1017.66 1017.74 1017.82 1017.94 1018.04 1018.16 1018.30 1018.32 1018.38 1018.42 1018.48 1018.52 1018.54 1018.58 1018.58 1018.66 1018.76 1018.80 1018.80 1018.82 1018.82 1018.82 1018.86 1018.88 1018.92 1018.94 1018.92 1018.92 1018.94 1019.02 1019.08 1019.10 1019.08 1019.02 1018.92 1018.92 1018.94 1018.98 1018.98 1018.92 1018.88 1018.82 1018.80 1018.76 1018.74 1018.70 1018.74 1018.74 1018.70 1018.70 1018.70 1018.66 1018.64 1018.64 1018.64 1018.66 1018.70 1018.76 1018.80 1018.86 1018.88 1018.94 1018.98 1019.04
1017.26 1017.36 1017.42 1017.48 1017.52 1017.54 1017.60 1017.70 1017.82 1017.94 1018.04 1018.10 1018.10 1018.14 1018.20 1018.24 1018.26 1018.30 1018.36 1018.38 1018.52 1018.60 1018.64 1018.64 1018.70 1018.70 1018.70 1018.66 1018.66 1018.66 1018.66 1018.66 1018.66 1018.70 1018.76 1018.86 1018.88 1018.88 1018.80 1018.74 1018.74 1018.76 1018.80 1018.80 1018.70 1018.66 1018.64 1018.60 1018.58 1018.54 1018.54 1018.54 1018.54 1018.48 1018.46 1018.48 1018.46 1018.42 1018.38 1018.38 1018.38 1018.42 1018.46 1018.52 1018.54 1018.60 1018.70 1018.74 1018.80
1017.08 1017.16 1017.24 1017.32 1017.38 1017.46 1017.52 1017.60 1017.74 1017.82 1017.88 1017.88 1017.86 1017.88 1017.94 1017.98 1018.02 1018.08 1018.16 1018.26 1018.38 1018.46 1018.46 1018.46 1018.52 1018.48 1018.46 1018.42 1018.42 1018.38 1018.38 1018.42 1018.48 1018.54 1018.58 1018.60 1018.66 1018.66 1018.60 1018.52 1018.54 1018.58 1018.60 1018.60 1018.54 1018.48 1018.42 1018.42 1018.36 1018.32 1018.36 1018.36 1018.32 1018.26 1018.26 1018.26 1018.24 1018.20 1018.20 1018.20 1018.16 1018.16 1018.20 1018.30 1018.32 1018.36 1018.42 1018.48 1018.54
1016.88 1016.98 1017.08 1017.16 1017.26 1017.30 1017.38 1017.52 1017.60 1017.64 1017.60 1017.60 1017.60 1017.60 1017.66 1017.76 1017.82 1017.92 1017.98 1018.04 1018.16 1018.24 1018.24 1018.26 1018.26 1018.24 1018.16 1018.16 1018.16 1018.16 1018.20 1018.24 1018.32 1018.36 1018.36 1018.38 1018.42 1018.46 1018.42 1018.32 1018.30 1018.32 1018.38 1018.42 1018.38 1018.32 1018.26 1018.24 1018.20 1018.16 1018.16 1018.16 1018.10 1018.08 1018.08 1018.08 1018.02 1017.98 1017.98 1017.98 1017.98 1017.98 1017.98 1018.04 1018.08 1018.10 1018.16 1018.26 1018.32
1016.70 1016.76 1016.86 1016.94 1017.04 1017.14 1017.24 1017.32 1017.36 1017.36 1017.36 1017.36 1017.38 1017.42 1017.48 1017.54 1017.60 1017.66 1017.74 1017.80 1017.88 1017.98 1018.02 1018.04 1018.02 1017.98 1017.98 1017.98 1017.98 1018.02 1018.02 1018.08 1018.10 1018.14 1018.16 1018.16 1018.16 1018.20 1018.20 1018.16 1018.08 1018.08 1018.16 1018.20 1018.16 1018.14 1018.08 1018.04 1017.98 1017.94 1017.92 1017.92 1017.88 1017.86 1017.82 1017.82 1017.82 1017.80 1017.76 1017.80 1017.80 1017.80 1017.80 1017.82 1017.88 1017.92 1017.94 1018.04 1018.08
1016.48 1016.58 1016.66 1016.74 1016.82 1016.92 1017.02 1017.10 1017.10 1017.08 1017.10 1017.14 1017.16 1017.20 1017.24 1017.30 1017.32 1017.36 1017.46 1017.54 1017.64 1017.74 1017.76 1017.80 1017.76 1017.76 1017.80 1017.82 1017.86 1017.86 1017.82 1017.82 1017.88 1017.94 1017.94 1017.94 1017.94 1017.98 1017.98 1017.92 1017.86 1017.86 1017.88 1017.94 1017.92 1017.88 1017.82 1017.80 1017.76 1017.70 1017.70 1017.66 1017.64 1017.60 1017.60 1017.60 1017.60 1017.58 1017.54 1017.54 1017.54 1017.58 1017.58 1017.64 1017.70 1017.74 1017.80 1017.86 1017.86
1016.32 1016.42 1016.48 1016.54 1016.60 1016.70 1016.76 1016.82 1016.82 1016.80 1016.82 1016.92 1016.92 1016.94 1016.98 1017.02 1017.10 1017.20 1017.26 1017.38 1017.48 1017.52 1017.58 1017.60 1017.60 1017.60 1017.66 1017.70 1017.70 1017.66 1017.64 1017.60 1017.64 1017.70 1017.74 1017.74 1017.76 1017.76 1017.74 1017.70 1017.64 1017.60 1017.64 1017.70 1017.70 1017.66 1017.60 1017.54 1017.48 1017.46 1017.42 1017.42 1017.38 1017.38 1017.38 1017.38 1017.38 1017.32 1017.30 1017.26 1017.30 1017.36 1017.36 1017.38 1017.46 1017.52 1017.60 1017.64 1017.70
Wind_Speed
3 3 3 3 3 2 2 1 2 2 3 3 2 2 2 2 2 2 2 2 2 2 2 2 2 2 2 2 2 2 2 2 1 1 1 1 1 1 0 0 1 1 1 1 2 2 2 2 2 2 1 1 1 2 2 2 2 2 2 1 1 1 1 1 2 2 1 1 1
4 3 3 3 3 2 1 1 1 2 2 2 3 3 3 3 3 2 2 2 2 2 2 2 2 2 2 2 2 2 2 2 2 2 2 1 2 1 1 1 1 1 1 1 1 2 2 2 2 1 1 1 2 2 2 2 2 2 2 2 1 1 0 1 1 1 1 1 1
4 3 3 2 2 2 2 2 2 2 2 2 2 2 2 2 2 3 3 2 2 2 2 2 2 2 3 3 2 2 2 2 2 2 2 2 2 2 1 1 1 1 1 0 0 1 1 1 1 1 1 1 2 2 2 2 2 1 1 1 1 1 1 0 0 1 1 1 1
3 3 3 3 4 4 3 3 3 2 2 1 1 1 1 1 1 2 2 1 1 2 2 2 2 2 2 3 2 2 2 2 2 2 2 2 2 2 2 1 1 1 1 0 0 1 1 1 1 1 1 1 1 1 1 2 2 1 1 1 1 1 1 1 0 0 0 0 1
3 4 4 4 4 4 3 3 3 3 2 1 1 0 1 1 1 1 1 1 1 1 1 2 2 2 1 2 2 2 2 2 2 2 2 2 2 2 2 2 1 1 1 1 1 1 1 1 1 1 1 0 0 0 1 1 1 1 1 0 1 1 1 1 1 0 0 0 0
4 4 4 3 4 3 2 2 2 2 2 1 1 1 1 1 1 1 1 2 2 1 1 2 2 2 2 1 2 2 2 2 2 2 2 2 2 2 2 2 2 2 2 1 1 1 1 1 1 1 1 1 0 0 0 0 1 1 1 1 1 1 1 1 1 0 0 0 0
4 4 4 3 3 3 2 2 2 2 1 1 2 2 2 2 2 2 2 1 1 1 1 1 2 2 2 2 2 3 3 3 2 2 2 2 2 2 2 2 2 2 2 2 2 1 1 2 1 1 1 1 1 0 0 1 1 1 1 1 1 0 0 1 1 0 0 0 0
3 4 4 4 3 4 3 3 2 2 2 1 3 3 3 3 3 2 2 1 1 1 1 1 2 2 2 2 3 3 3 3 3 3 2 2 2 2 2 2 2 2 2 2 2 2 2 2 1 1 1 1 1 1 1 1 1 1 1 1 1 0 0 0 0 0 0 1 1
3 3 3 3 3 4 4 4 4 3 3 3 4 4 4 3 3 3 2 2 2 2 1 1 2 2 2 2 3 3 4 4 4 3 3 3 3 2 2 2 1 1 2 2 3 3 2 1 1 1 1 1 1 1 1 1 1 1 1 1 1 1 0 1 1 1 1 1 1
4 4 4 4 4 4 4 4 4 4 4 4 4 4 4 4 4 4 3 2 2 2 1 2 2 2 2 3 3 4 4 4 4 4 4 3 3 3 3 2 2 1 2 2 3 3 3 2 2 1 1 1 2 2 2 1 1 1 1 1 1 1 1 1 0 1 1 1 1
6 5 5 5 5 5 4 4 4 4 5 5 4 4 4 4 4 4 3 2 2 2 2 2 2 2 3 3 4 4 4 3 3 4 4 4 4 3 3 3 2 2 2 2 2 2 3 3 2 2 2 2 2 2 3 3 2 2 2 2 1 1 2 2 1 0 1 1 2
6 5 5 5 5 5 5 4 4 4 5 5 5 5 5 5 4 4 3 3 3 3 3 3 3 3 3 3 4 4 4 4 4 4 4 4 4 4 3 3 3 2 2 3 2 2 2 3 3 4 3 3 2 2 3 4 4 4 3 3 2 2 2 3 2 1 1 1 2
5 5 4 4 4 4 5 5 4 4 5 5 5 5 5 5 4 4 4 4 3 3 3 3 3 3 3 3 4 4 4 4 4 4 4 4 4 4 4 3 3 2 2 3 3 3 3 3 4 5 5 5 4 3 4 5 5 4 4 5 4 3 3 4 3 2 1 2 2
4 4 4 4 4 4 4 5 4 4 5 6 6 5 5 4 4 4 4 4 4 3 3 2 3 3 3 4 4 4 4 4 4 4 5 4 4 4 4 4 3 3 3 3 4 4 5 5 5 5 5 5 5 5 5 5 5 5 5 5 5 4 4 4 3 2 2 2 3
4 4 4 4 4 4 5 5 4 4 5 6 6 5 5 4 4 4 4 4 4 3 3 2 3 3 3 4 4 4 4 4 4 5 5 5 5 5 5 4 4 4 4 4 5 5 6 6 5 5 5 5 5 5 5 5 5 5 5 5 5 5 4 4 3 3 3 3 3
4 4 4 4 5 5 5 5 4 4 5 5 5 5 5 4 4 4 4 4 4 3 3 3 3 3 3 4 4 4 4 4 4 5 5 5 5 5 5 4 4 4 4 5 5 6 6 6 5 5 5 5 5 5 5 5 5 5 5 6 5 5 4 4 4 4 4 4 4
5 5 5 5 6 6 6 6 5 5 5 6 5 5 5 5 4 4 5 5 4 4 4 4 4 3 3 3 4 4 4 4 5 5 5 6 5 5 5 5 5 4 5 5 6 7 7 6 6 6 6 6 5 6 6 6 5 5 6 6 6 5 5 5 5 5 5 5 6
5 5 5 6 7 7 8 7 7 6 6 6 6 5 5 5 5 5 5 6 5 5 5 5 4 4 4 4 4 4 5 5 5 6 6 6 6 6 5 5 5 4 4 5 6 7 7 7 6 6 6 6 6 6 6 6 6 5 5 5 5 5 5 5 5 5 5 6 6
6 6 6 7 8 8 8 8 8 7 7 6 5 5 5 6 6 6 5 6 6 7 6 6 5 5 5 5 5 5 5 6 6 7 7 7 6 6 6 6 5 5 5 6 6 7 7 7 7 7 7 7 6 6 6 7 6 6 5 5 5 6 6 6 5 5 5 6 6
7 7 8 8 8 8 8 8 8 7 6 5 5 6 6 7 6 7 7 7 7 7 7 6 6 6 6 6 6 6 6 5 6 7 7 7 6 6 6 6 6 6 6 7 7 7 7 7 7 7 7 7 7 7 7 7 7 7 6 5 5 6 6 6 5 6 6 7 7
8 8 9 8 8 8 8 8 7 6 6 6 6 7 7 7 7 7 8 7 7 7 7 7 7 6 6 6 6 6 6 5 6 6 6 6 6 7 6 6 6 7 7 7 8 8 8 7 7 7 7 7 8 8 8 7 7 7 6 5 5 6 6 6 6 7 7 8 7
8 8 8 8 7 7 7 7 6 5 5 6 7 7 7 7 7 8 7 7 6 6 7 7 7 7 7 7 7 6 6 6 6 6 6 6 6 6 6 6 7 7 7 8 8 8 8 8 8 8 8 8 8 8 8 8 7 7 7 6 6 6 6 6 7 7 8 8 8
8 7 6 6 6 7 7 6 6 6 6 7 7 7 7 7 7 7 6 6 6 7 7 6 6 7 7 7 7 6 6 6 6 6 6 6 6 6 6 6 7 8 8 8 8 8 8 8 8 8 8 8 8 8 8 8 8 7 7 7 7 7 7 7 8 8 8 8 8
7 6 5 5 5 6 6 6 6 6 6 7 7 7 7 7 6 6 6 6 7 7 7 6 6 6 7 6 6 6 6 6 7 7 7 7 7 7 7 6 7 8 8 7 8 8 8 7 7 7 8 8 8 8 8 8 8 7 7 8 8 8 8 8 8 8 8 8 8
6 5 5 5 5 5 5 6 6 7 7 7 7 7 6 6 6 6 6 6 7 7 7 6 6 6 6 5 6 6 6 7 7 7 8 8 7 7 7 7 7 7 8 8 11 13 13 11 9 7 7 7 7 7 8 8 8 8 7 7 8 8 8 8 8 7 7 8 8
5 5 5 6 5 5 6 7 7 7 7 6 6 6 6 6 5 5 6 6 7 7 6 6 6 6 6 5 5 6 6 7 7 8 8 8 8 8 8 7 7 7 7 9 13 15 16 15 13 11 8 7 7 7 7 6 7 7 7 7 7 8 8 8 8 7 7 7 8
5 5 5 5 5 6 7 7 6 6 6 6 6 7 6 6 5 5 6 6 6 6 5 5 5 6 6 5 6 7 7 7 7 7 8 8 8 9 8 8 7 7 8 11 14 15 16 16 16 15 12 8 8 7 7 7 7 7 7 7 7 8 8 8 8 7 7 7 7
5 5 5 5 6 6 6 6 6 6 7 7 7 6 6 5 5 5 6 5 5 5 5 5 5 5 5 6 7 7 7 7 7 7 7 8 9 9 9 8 7 8 10 13 15 15 16 16 16 16 15 11 8 8 8 8 7 7 7 7 7 8 9 9 7 7 7 7 6
6 5 5 5 6 6 6 6 7 7 7 7 6 6 5 5 5 6 5 5 5 5 5 5 5 5 5 6 7 7 7 8 7 7 7 8 9 9 9 9 8 9 12 15 15 16 16 16 16 16 16 14 9 7 6 7 7 7 7 7 7 7 8 8 7 7 7 7 7
6 5 5 6 6 6 6 7 7 7 7 6 5 5 5 5 6 6 6 6 7 7 6 5 5 6 7 7 7 7 7 7 7 7 8 9 9 10 10 10 9 9 12 15 16 16 16 16 16 16 16 16 12 8 6 6 7 7 7 7 7 8 8 8 9 8 8 8 7
6 6 6 6 7 7 7 7 7 6 5 5 5 5 5 6 7 7 7 7 7 6 6 6 7 8 8 8 7 7 7 7 7 8 8 9 10 11 10 10 9 10 12 15 16 16 16 16 16 16 16 17 13 9 6 6 7 7 7 7 8 9 9 9 9 9 9 9 8
6 6 6 7 7 7 7 7 6 5 5 5 5 6 6 7 6 6 5 5 5 6 6 7 8 9 9 9 8 8 8 8 8 8 9 9 10 10 10 10 10 10 12 15 16 16 16 17 16 17 17 17 14 10 8 7 7 7 8 8 9 10 10 9 9 9 10 10 9
6 6 7 7 8 7 7 6 6 5 5 5 6 6 7 7 6 5 5 4 4 5 7 8 9 9 9 9 9 9 9 9 9 10 10 10 10 10 10 10 9 10 12 15 15 16 16 17 17 17 17 17 13 10 9 8 7 7 7 8 9 10 11 11 10 10 10 10 10
6 7 7 7 7 7 6 5 5 5 5 5 6 6 7 6 6 5 5 5 5 5 6 7 8 9 9 8 8 9 9 9 9 9 9 10 10 10 10 9 7 9 12 14 15 16 16 16 16 16 16 16 12 10 9 9 8 7 7 8 9 10 10 11 11 10 10 10 9
6 7 7 7 7 7 6 5 5 5 5 6 6 7 7 6 7 6 6 6 6 5 5 6 7 7 7 8 8 9 9 9 9 9 9 9 9 10 11 11 8 10 12 15 15 16 16 16 16 16 16 14 10 8 8 9 9 9 9 9 9 9 10 10 10 10 10 10 9
7 7 7 7 7 6 6 6 5 5 6 7 7 7 7 7 7 6 6 6 6 5 5 6 6 7 8 8 8 9 10 10 10 9 9 9 10 10 11 11 10 11 13 15 16 16 16 16 16 16 15 12 8 7 7 7 8 9 9 10 9 9 9 9 9 9 9 9 9
7 7 7 7 7 6 6 6 6 6 7 8 8 7 7 7 6 5 5 5 5 5 6 6 7 8 9 9 9 9 9 9 9 9 9 10 10 10 11 11 10 11 12 15 16 16 16 16 16 16 14 10 8 6 6 6 7 7 8 9 9 9 8 7 8 8 8 8 9
7 7 7 7 7 7 6 6 6 7 8 8 8 7 6 6 5 5 5 5 5 6 6 7 8 9 9 9 9 9 9 8 9 9 10 10 10 10 11 11 10 10 11 13 15 16 17 17 17 16 14 10 8 6 6 6 6 7 8 8 8 8 7 6 6 6 7 8 10
7 7 7 7 7 7 6 7 7 8 8 7 7 6 6 5 5 5 5 5 5 6 6 7 8 8 8 8 8 8 8 8 9 10 10 10 10 10 11 12 10 10 10 13 15 16 16 17 17 17 15 12 9 7 6 6 6 7 8 8 8 7 6 5 5 5 6 8 12
7 7 7 7 7 7 7 7 8 8 7 6 6 6 6 5 5 5 5 5 5 5 6 6 7 7 8 8 8 8 9 8 8 9 10 10 10 12 13 13 11 10 11 12 15 16 16 17 17 17 16 12 9 7 6 6 6 7 8 8 8 7 6 5 5 5 5 7 10
6 7 7 7 7 7 7 8 8 7 7 6 6 6 5 4 4 4 4 4 5 5 6 6 7 7 7 7 8 8 8 9 8 9 9 10 11 12 13 12 11 10 10 11 14 15 16 17 17 17 16 12 8 7 6 6 6 8 9 8 8 7 6 5 5 5 5 6 7
Wind_Direction
197 197 193 181 175 176 183 190 186 174 166 166 176 181 183 183 194 193 187 181 190 194 194 189 176 159 143 145 155 160 161 159 159 156 146 126 119 116 113 342 318 317 317 326 352 5 12 16 20 23 24 20 5 3 8 24 22 23 24 27 28 36 63 103 120 125 126 124 111
195 198 196 188 169 160 163 196 199 181 170 170 175 177 178 182 188 188 185 187 190 183 173 165 157 151 153 164 165 167 171 173 169 161 149 136 138 143 153 182 229 260 278 316 10 19 19 21 34 34 23 16 8 7 11 19 25 30 32 27 18 18 46 108 137 144 144 139 125
186 187 187 182 167 169 178 191 200 195 187 185 168 162 165 178 181 180 180 184 176 164 157 160 163 162 163 166 165 170 176 182 176 166 156 152 150 149 158 184 222 241 249 239 49 37 31 29 48 52 39 21 13 8 4 2 12 29 38 21 359 352 358 55 141 144 143 135 128
179 180 182 184 180 182 188 192 194 197 196 190 149 144 162 181 173 166 161 156 155 164 169 166 163 162 162 160 163 173 187 197 183 170 163 160 158 156 162 181 210 238 241 212 116 67 49 42 62 72 68 43 24 7 357 349 3 18 34 25 2 352 349 349 5 63 136 138 141
191 190 190 191 189 190 190 186 189 190 187 160 137 164 182 164 144 134 142 164 188 189 177 155 149 149 153 153 163 176 192 212 195 177 165 165 166 166 164 164 191 226 233 216 156 105 76 60 79 94 102 106 99 10 337 337 359 13 18 9 25 13 351 347 349 356 24 99 63
202 199 197 196 193 191 186 178 177 171 157 129 157 184 195 172 158 166 183 199 196 183 162 155 153 155 157 157 173 184 194 207 203 185 169 169 172 166 161 160 188 212 217 204 175 135 103 80 88 113 140 155 169 184 208 343 28 29 19 359 12 15 3 342 346 357 17 63 51
200 199 197 197 194 189 184 175 158 140 128 130 172 192 200 187 181 187 193 195 184 175 173 173 170 172 176 179 193 198 198 199 201 191 179 172 171 169 167 169 193 203 202 193 179 151 121 104 104 116 135 130 144 146 124 101 78 56 28 344 339 6 17 318 323 340 347 187 204
197 196 195 194 189 188 184 178 166 156 157 177 195 201 201 192 189 188 189 191 202 195 185 164 171 179 186 191 202 203 200 196 199 198 191 178 174 175 178 179 194 200 199 194 181 162 134 118 122 135 154 154 160 151 118 101 81 63 29 318 305 285 197 238 265 248 213 204 222
204 202 197 191 189 186 183 178 175 178 186 198 203 203 199 192 188 187 190 203 201 186 166 158 171 181 191 202 210 209 204 200 199 199 195 186 180 179 182 183 197 210 212 206 189 174 157 140 145 164 181 191 181 172 153 124 78 48 341 286 292 291 269 202 201 195 189 181 223
209 206 201 197 196 191 183 178 182 186 191 199 203 202 201 200 195 192 193 191 173 162 163 175 172 182 200 212 215 215 212 210 204 200 195 190 188 186 185 183 196 220 238 233 209 191 179 175 177 188 197 195 189 195 197 185 182 250 262 250 274 299 308 295 190 182 188 186 217
209 205 200 201 199 192 185 183 191 195 198 203 204 202 202 207 202 195 187 166 158 177 194 185 178 191 208 218 218 216 215 215 212 205 199 197 195 193 190 186 192 212 238 250 235 214 199 197 196 200 209 216 211 219 224 223 224 232 238 233 234 285 304 300 289 215 188 197 233
208 205 202 200 196 190 188 193 200 204 207 210 209 206 204 207 201 191 178 165 183 200 206 190 188 200 214 224 221 218 217 217 216 212 208 204 201 198 193 189 191 206 230 250 252 243 227 220 215 215 216 223 224 227 229 229 225 226 229 232 226 236 262 274 270 243 191 189 242
207 204 203 200 193 190 193 202 208 211 213 216 215 212 209 209 199 187 179 183 198 206 207 197 195 203 216 227 224 221 219 219 217 216 215 211 206 202 198 195 196 208 228 248 258 258 250 237 227 221 219 220 220 222 224 225 223 223 228 233 229 228 235 248 245 229 197 192 229
203 203 202 197 192 194 199 209 215 217 218 220 220 216 212 209 200 190 186 194 205 209 206 203 205 211 217 223 225 224 222 220 217 218 219 218 212 209 208 210 213 219 231 245 254 256 254 247 237 228 223 221 218 220 221 223 223 226 229 233 227 221 222 232 229 221 212 216 227
204 204 202 196 194 199 206 213 219 220 220 223 221 216 210 209 202 196 193 199 205 205 203 206 218 222 222 219 221 222 222 220 218 219 221 222 219 218 218 222 224 228 234 243 249 250 250 250 247 241 233 226 221 221 222 223 225 227 229 233 227 220 217 222 222 224 228 233 237
207 207 203 197 201 206 212 216 220 221 221 223 218 212 208 207 203 199 197 200 201 202 206 215 221 224 225 222 218 217 217 218 218 219 220 223 223 224 225 224 225 229 235 243 247 248 248 249 252 250 246 238 231 227 226 226 226 228 231 234 231 226 220 218 222 228 235 242 243
212 210 205 201 207 212 217 219 221 222 222 222 216 209 205 203 200 200 201 201 199 202 211 218 219 221 225 229 220 212 209 213 215 216 218 219 221 223 226 226 227 229 233 240 246 248 248 248 250 252 251 248 243 238 234 233 231 231 233 236 233 229 224 222 225 230 237 245 245
217 214 209 207 212 216 219 221 222 223 223 221 215 209 204 200 198 202 205 204 200 203 209 215 216 218 222 228 221 212 206 207 212 214 214 216 217 219 224 230 231 230 229 234 241 243 243 242 244 247 249 250 248 246 244 242 239 235 233 233 231 229 228 228 229 232 237 244 247
220 217 214 214 217 219 221 222 223 223 223 220 215 210 205 201 199 201 205 207 203 202 204 210 214 218 222 224 221 216 210 208 210 212 214 215 216 220 225 233 234 233 232 234 238 239 240 239 240 243 245 248 249 249 248 246 244 239 234 229 231 233 233 234 232 235 240 246 248
222 220 219 219 219 221 222 223 223 222 221 219 214 211 208 204 200 201 205 209 204 201 200 206 212 217 220 221 220 218 216 213 213 216 218 219 223 227 232 235 236 235 235 237 239 240 241 240 241 242 244 246 248 249 248 247 245 242 237 231 231 233 235 234 234 238 244 247 248
225 223 223 221 220 221 222 222 221 220 219 217 214 213 211 206 204 205 207 207 201 198 200 207 211 213 216 218 218 219 220 221 221 223 225 228 232 235 238 239 238 236 235 234 236 238 239 239 239 240 241 243 245 247 247 247 246 243 239 233 232 233 234 234 236 241 244 246 244
229 226 224 222 221 221 220 220 218 217 217 217 215 214 212 210 209 209 208 203 199 199 204 209 210 212 213 215 218 220 224 226 226 228 230 233 236 239 241 242 242 240 238 235 235 234 235 236 236 236 236 238 240 242 244 244 244 243 241 237 235 236 237 239 241 243 244 244 242
231 228 224 221 220 219 220 218 216 216 217 218 217 216 215 215 213 210 206 202 202 204 208 211 210 211 212 214 217 221 226 230 231 232 232 233 237 239 240 242 244 244 242 239 236 234 234 235 234 233 232 233 235 237 238 240 241 241 241 241 239 240 241 243 244 243 243 243 244
231 228 224 217 216 217 217 216 215 217 218 220 219 218 217 218 215 211 207 206 208 210 211 213 212 211 212 215 217 221 226 230 234 235 235 234 235 236 238 239 242 243 243 241 236 233 231 231 231 231 231 231 233 234 234 234 235 237 239 241 242 243 243 244 243 242 242 242 245
230 227 223 217 215 214 214 214 217 220 222 222 220 219 218 218 214 212 210 212 213 214 214 215 213 212 212 215 217 220 224 229 233 237 238 238 237 236 236 237 239 240 240 240 238 237 235 231 227 223 223 226 229 232 234 234 234 235 236 238 240 242 243 244 241 239 237 239 243
227 225 222 218 215 214 215 216 218 221 224 224 222 220 219 217 213 211 212 216 217 217 216 215 215 214 215 216 218 221 224 228 232 235 238 240 240 238 236 236 236 237 237 238 238 238 238 237 232 226 217 211 215 220 225 228 228 228 230 232 236 239 241 242 241 240 238 239 242
225 224 222 218 216 217 218 218 220 222 225 225 224 223 221 216 213 212 214 218 219 218 216 215 217 220 222 223 223 224 225 227 230 232 235 238 240 240 239 237 236 235 236 238 239 240 240 240 239 234 225 209 205 207 212 217 219 222 225 228 230 233 236 239 239 240 240 241 242
223 222 220 217 218 220 221 219 221 224 226 226 224 223 221 215 212 214 216 219 218 218 218 219 218 222 226 230 228 226 226 228 229 231 233 235 238 239 239 239 237 236 238 239 241 241 242 242 242 240 236 223 210 204 205 209 212 215 220 224 226 228 230 232 233 235 236 238 238
221 219 217 215 220 222 222 220 222 225 226 225 224 222 220 216 215 216 219 220 220 221 222 223 221 223 227 231 231 229 228 228 230 232 234 236 237 238 239 239 239 240 241 242 243 244 244 244 244 244 242 237 224 207 199 202 205 209 213 218 220 222 223 225 225 225 226 228 229
216 214 214 216 220 223 223 222 224 225 225 224 221 220 218 219 220 221 222 222 224 225 225 223 223 225 228 229 229 230 229 229 229 230 233 236 238 239 240 239 238 240 242 244 246 246 246 246 245 245 245 244 239 228 208 200 202 206 209 211 213 216 219 221 222 222 222 223 223
212 210 211 215 221 224 226 225 224 223 222 220 217 216 217 221 223 224 224 224 226 228 228 226 228 230 231 230 229 229 230 229 228 228 230 234 239 241 242 241 240 241 243 245 247 248 248 248 248 247 246 246 245 239 226 211 208 207 208 209 210 212 216 220 221 221 221 221 222
209 208 210 215 222 226 227 225 222 220 216 215 214 216 219 223 225 226 225 224 226 228 229 229 231 233 234 233 232 232 231 230 229 229 230 232 237 240 243 243 242 242 243 245 247 249 250 250 250 249 248 247 246 245 240 230 219 214 211 211 210 212 214 217 219 220 221 222 222
207 206 209 216 223 226 226 223 218 213 211 211 214 217 222 226 228 228 226 224 223 225 227 229 231 233 235 234 234 234 233 232 232 233 233 235 237 241 244 245 244 243 243 245 247 249 250 251 251 250 249 248 247 246 243 240 233 225 218 214 213 214 215 217 218 219 220 221 221
207 208 211 217 223 225 224 219 211 207 207 211 216 220 223 226 229 230 228 224 221 222 224 228 231 233 235 234 234 235 235 235 233 233 233 235 238 242 244 245 243 241 243 246 247 249 250 251 251 251 250 248 248 245 242 241 240 237 231 225 220 217 216 217 218 220 220 220 221
206 207 212 218 222 222 221 215 207 204 205 213 219 223 224 225 227 228 227 224 222 222 225 228 231 234 236 236 234 235 236 238 236 234 232 233 237 242 245 247 246 244 244 247 249 250 251 252 252 251 250 248 247 243 241 240 240 240 240 238 231 224 219 217 218 220 221 220 220
204 206 211 218 220 220 217 211 204 203 207 215 221 224 225 225 226 226 226 224 223 224 226 229 231 234 236 236 235 235 235 236 236 235 234 232 235 240 245 248 248 247 246 248 250 252 253 253 253 251 250 248 245 241 238 238 240 241 242 243 240 233 225 219 219 219 219 219 218
203 204 207 213 217 216 213 206 202 205 212 218 221 223 224 225 226 225 220 215 218 223 227 228 230 232 233 234 234 234 233 233 234 235 236 234 234 239 244 248 248 247 247 249 251 253 254 254 254 252 250 247 242 238 236 237 239 240 241 242 243 239 232 224 221 219 217 216 216
202 201 203 208 212 212 209 202 203 209 215 221 222 223 223 223 223 221 215 209 213 220 226 229 230 232 232 232 235 235 234 231 232 234 236 236 235 238 243 249 249 247 245 247 250 252 254 254 254 252 249 246 240 236 233 234 237 239 241 242 244 242 235 227 221 217 216 215 216
200 199 200 204 208 207 205 203 207 212 217 221 223 222 220 220 218 215 211 205 209 215 222 228 230 232 232 232 236 238 237 232 231 233 235 237 236 237 241 247 250 248 245 245 248 250 252 253 253 251 249 246 241 235 231 232 235 237 240 242 244 243 237 227 219 216 215 216 220
198 196 197 201 204 204 204 206 212 215 217 218 221 221 219 218 217 213 209 204 207 212 219 227 230 232 233 233 237 240 240 236 231 231 233 236 238 239 242 247 250 249 247 245 248 250 251 253 252 251 248 245 241 235 232 231 233 236 238 240 241 241 237 226 216 212 213 217 222
194 193 196 201 203 203 205 210 215 217 217 217 219 220 219 215 213 209 205 205 208 213 219 228 232 232 232 232 237 241 243 242 234 230 230 233 238 241 243 246 249 250 248 246 247 250 251 253 253 251 248 244 239 235 232 230 234 236 237 237 238 238 237 230 219 211 210 212 219